Regional Weather Roundup
Issued by NWS Memphis, TN

Home | Current Version | Previous Version | Text Only | Print | Product List | Glossary On
Versions: 1 2 3 4 5 6 7 8 9 10 11 12 13 14 15 16 17 18 19 20 21 22 23 24 25 26 27 28 29 30 31 32 33 34 35 36 37 38 39 40 41 42 43 44 45 46 47 48 49 50
000
ASUS44 KMEG 011500
RWRMEG
MEMPHIS CWA HOURLY WEATHER ROUNDUP
NATIONAL WEATHER SERVICE MEMPHIS TN
1000 AM CDT WED OCT 01 2014

...WEST TENNESSEE...

CITY           SKY/WX    TMP DP  RH WIND       PRES   REMARKS
MEMPHIS INTL   MOSUNNY   81  65  58 S9G17     29.94S
NWS MEMPHIS      N/A     79 N/A N/A MISG        N/A
JACKSON        SUNNY     78  64  61 S5        29.96R
LEXINGTON      SUNNY     73  63  68 S3        29.97S
SAVANNAH       SUNNY     79  64  61 SE5       29.98S
DYERSBURG      SUNNY     75  57  53 S5        29.96S
UNION CITY     MOSUNNY   75  63  64 S5        29.95R
PARIS          SUNNY     77  61  57 S3        29.98R


...EASTERN ARKANSAS...

CITY           SKY/WX    TMP DP  RH WIND       PRES   REMARKS
JONESBORO      MOSUNNY   75  64  68 S8        29.92S
WEST MEMPHIS   SUNNY     80  68  66 S9        29.93R
BATESVILLE     SUNNY    N/A N/A N/A S7        29.90R
WALNUT RIDGE   SUNNY     57  34  41 E3        30.03R
BLYTHEVILLE    SUNNY     82  64  54 S9        29.94R
SEARCY         MOSUNNY   74  66  76 S7        29.92R
STUTTGART      CLOUDY   N/A N/A N/A S9        29.92R
PINE BLUFF     CLOUDY    75  69  81 S7        29.91R
MONTICELLO     MOSUNNY   81  71  71 SW6       29.91S


...NORTH MISSISSIPPI...

CITY           SKY/WX    TMP DP  RH WIND       PRES   REMARKS
TUPELO         SUNNY     77  63  61 VRB3      29.98R
OLIVE BRANCH   MOSUNNY   75  68  78 S7        29.95S
TUNICA         SUNNY     81  68  65 S8        29.94S
GREENWOOD      PTSUNNY   80  70  71 S6        29.95R
STARKVILLE     FAIR      77  66  69 S3        29.97S
GOLDEN TRIANGL SUNNY     77  66  69 SW3       29.97S


...SOUTHEAST MISSOURI...

CITY           SKY/WX    TMP DP  RH WIND       PRES   REMARKS
WEST PLAINS    MOSUNNY   75  60  59 S7        29.93R
POPLAR BLUFF   CLOUDY    71  60  68 SE3       29.92S
CAPE GIRARDEAU SUNNY     73  60  63 SE6       29.94S


...NORTHWEST ALABAMA...

CITY           SKY/WX    TMP DP  RH WIND       PRES   REMARKS
MUSCLE SHOALS  SUNNY     76  61  59 S3        30.01R


...MIDDLE TENNESSEE...

CITY           SKY/WX    TMP DP  RH WIND       PRES   REMARKS
NASHVILLE      PTSUNNY   75  58  55 S3        30.00S
CLARKSVILLE    MOSUNNY   72  57  59 CALM      29.98S


...WESTERN KENTUCKY...

CITY           SKY/WX    TMP DP  RH WIND       PRES   REMARKS
PADUCAH        SUNNY     76  60  57 SE5       29.95S
FORT CAMPBELL  MOSUNNY   75  56  50 S3        29.98S


...CENTRAL ARKANSAS...

CITY           SKY/WX    TMP DP  RH WIND       PRES   REMARKS
LITTLE ROCK    MOSUNNY   78  65  63 S6        29.90R


SKY/WX REPORTED AS FAIR MEANS FEW OR NO CLOUDS BELOW
12 THOUSAND FEET.



USA.gov is the U.S. government's official web portal to all federal, state and local government web resources and services.